Time,TemperatureF,DewpointF,PressureIn,WindDirection,WindDirectionDegrees,WindSpeedMPH,WindSpeedGustMPH,Humidity,HourlyPrecipIn,Conditions,Clouds,dailyrainin,SoftwareType,DateUTC
2013-05-27 00:01:00,49.5,47.3,29.78,SSW,201,7.0,11.0,92,0.00,,---,0.00,VWS V14.00,2013-05-26 23:01:00,
2013-05-27 00:06:00,49.5,47.3,29.78,SSW,211,7.0,7.0,92,0.00,,---,0.00,VWS V14.00,2013-05-26 23:06:00,
2013-05-27 00:11:00,49.4,47.2,29.78,SE,132,6.0,7.0,92,0.00,,---,0.00,VWS V14.00,2013-05-26 23:11:00,
2013-05-27 00:16:00,49.4,47.2,29.77,SW,216,10.0,13.0,92,0.00,,---,0.00,VWS V14.00,2013-05-26 23:16:00,
2013-05-27 00:21:00,49.4,47.2,29.76,South,188,8.0,8.0,92,0.00,,---,0.00,VWS V14.00,2013-05-26 23:21:00,
2013-05-27 00:26:00,49.4,46.9,29.77,SSW,211,13.0,13.0,91,0.00,,---,0.00,VWS V14.00,2013-05-26 23:26:00,
2013-05-27 00:31:00,49.4,46.9,29.76,South,172,6.0,15.0,91,0.00,,---,0.00,VWS V14.00,2013-05-26 23:31:00,
2013-05-27 00:36:00,49.4,46.9,29.76,South,172,14.0,18.0,91,0.00,,---,0.00,VWS V14.00,2013-05-26 23:36:00,
2013-05-27 00:41:00,49.4,46.9,29.76,SE,145,11.0,12.0,91,0.00,,---,0.00,VWS V14.00,2013-05-26 23:41:00,
2013-05-27 00:46:00,49.5,47.0,29.76,South,186,6.0,7.0,91,0.00,,---,0.00,VWS V14.00,2013-05-26 23:46:00,
2013-05-27 00:51:00,49.4,46.9,29.75,South,187,7.0,13.0,91,0.00,,---,0.00,VWS V14.00,2013-05-26 23:51:00,
2013-05-27 00:56:00,49.4,46.9,29.75,South,180,6.0,9.0,91,0.00,,---,0.00,VWS V14.00,2013-05-26 23:56:00,
2013-05-27 01:01:00,49.4,46.9,29.75,SSE,167,11.0,11.0,91,0.00,,---,0.00,VWS V14.00,2013-05-27 00:01:00,
2013-05-27 01:06:00,49.4,46.9,29.74,South,179,3.0,5.0,91,0.00,,---,0.00,VWS V14.00,2013-05-27 00:06:00,
2013-05-27 01:11:00,49.4,46.9,29.73,SSW,196,2.0,7.0,91,0.00,,---,0.00,VWS V14.00,2013-05-27 00:11:00,
2013-05-27 01:16:00,49.5,47.0,29.73,SSW,197,4.0,10.0,91,0.00,,---,0.00,VWS V14.00,2013-05-27 00:16:00,
2013-05-27 01:21:00,49.5,47.0,29.73,South,180,12.0,15.0,91,0.00,,---,0.00,VWS V14.00,2013-05-27 00:21:00,
2013-05-27 01:26:00,49.5,47.0,29.72,South,172,3.0,8.0,91,0.00,,---,0.00,VWS V14.00,2013-05-27 00:26:00,
2013-05-27 01:31:00,49.5,46.7,29.72,South,188,11.0,15.0,90,0.00,,---,0.00,VWS V14.00,2013-05-27 00:31:00,
2013-05-27 01:36:00,49.6,46.8,29.72,SSW,211,3.0,13.0,90,0.00,,---,0.00,VWS V14.00,2013-05-27 00:36:00,
2013-05-27 01:41:00,49.7,46.9,29.72,South,174,17.0,17.0,90,0.00,,---,0.00,VWS V14.00,2013-05-27 00:41:00,
2013-05-27 01:46:00,49.8,47.0,29.71,SSW,206,4.0,9.0,90,0.00,,---,0.00,VWS V14.00,2013-05-27 00:46:00,
2013-05-27 01:51:00,49.8,47.0,29.71,SSW,192,21.0,22.0,90,0.00,,---,0.00,VWS V14.00,2013-05-27 00:51:00,
2013-05-27 01:56:00,49.8,47.0,29.71,SW,234,11.0,16.0,90,0.00,,---,0.00,VWS V14.00,2013-05-27 00:56:00,
2013-05-27 02:01:00,49.7,46.9,29.70,South,173,9.0,15.0,90,0.00,,---,0.00,VWS V14.00,2013-05-27 01:01:00,
2013-05-27 02:06:00,49.6,47.1,29.70,SSE,156,8.0,13.0,91,0.00,,---,0.00,VWS V14.00,2013-05-27 01:06:00,
2013-05-27 02:11:00,49.5,47.0,29.69,SSE,159,9.0,12.0,91,0.00,,---,0.00,VWS V14.00,2013-05-27 01:11:00,
2013-05-27 02:16:00,49.3,47.1,29.69,SSE,159,15.0,15.0,92,0.00,,---,0.00,VWS V14.00,2013-05-27 01:16:00,
2013-05-27 02:21:00,49.2,47.3,29.69,SSW,196,8.0,12.0,93,0.00,,---,0.00,VWS V14.00,2013-05-27 01:21:00,
2013-05-27 02:26:00,49.2,47.3,29.68,South,173,7.0,10.0,93,0.00,,---,0.00,VWS V14.00,2013-05-27 01:26:00,
2013-05-27 02:31:00,49.2,47.3,29.68,South,171,9.0,10.0,93,0.00,,---,0.00,VWS V14.00,2013-05-27 01:31:00,
2013-05-27 02:36:00,49.3,47.4,29.68,South,190,14.0,14.0,93,0.00,,---,0.00,VWS V14.00,2013-05-27 01:36:00,
2013-05-27 02:41:00,49.4,47.5,29.67,SE,130,13.0,13.0,93,0.00,,---,0.00,VWS V14.00,2013-05-27 01:41:00,
2013-05-27 02:46:00,49.6,47.7,29.67,SSW,196,16.0,16.0,93,0.00,,---,0.00,VWS V14.00,2013-05-27 01:46:00,
2013-05-27 02:51:00,49.6,47.7,29.67,SSE,168,9.0,9.0,93,0.00,,---,0.00,VWS V14.00,2013-05-27 01:51:00,
2013-05-27 02:56:00,49.6,47.4,29.66,South,188,7.0,18.0,92,0.00,,---,0.00,VWS V14.00,2013-05-27 01:56:00,
2013-05-27 03:01:00,49.6,47.7,29.66,SSE,160,11.0,17.0,93,0.00,,---,0.00,VWS V14.00,2013-05-27 02:01:00,
2013-05-27 03:06:00,49.5,47.6,29.66,SSE,150,15.0,18.0,93,0.00,,---,0.00,VWS V14.00,2013-05-27 02:06:00,
2013-05-27 03:11:00,49.4,47.5,29.65,South,181,16.0,19.0,93,0.00,,---,0.00,VWS V14.00,2013-05-27 02:11:00,
2013-05-27 03:16:00,49.3,47.7,29.65,South,180,14.0,20.0,94,0.00,,---,0.00,VWS V14.00,2013-05-27 02:16:00,
2013-05-27 03:21:00,49.3,47.7,29.65,SSW,192,17.0,17.0,94,0.00,,---,0.00,VWS V14.00,2013-05-27 02:21:00,
2013-05-27 03:26:00,49.2,47.5,29.64,South,182,13.0,14.0,94,0.00,,---,0.00,VWS V14.00,2013-05-27 02:26:00,
2013-05-27 03:31:00,49.3,47.7,29.64,South,189,13.0,22.0,94,0.00,,---,0.00,VWS V14.00,2013-05-27 02:31:00,
2013-05-27 03:36:00,49.4,47.8,29.64,SSW,198,11.0,11.0,94,0.00,,---,0.00,VWS V14.00,2013-05-27 02:36:00,
2013-05-27 03:41:00,49.4,47.8,29.63,South,180,4.0,10.0,94,0.00,,---,0.00,VWS V14.00,2013-05-27 02:41:00,
2013-05-27 03:46:00,49.4,47.8,29.63,South,176,11.0,20.0,94,0.00,,---,0.00,VWS V14.00,2013-05-27 02:46:00,
2013-05-27 03:51:00,49.4,47.8,29.63,South,185,9.0,18.0,94,0.00,,---,0.00,VWS V14.00,2013-05-27 02:51:00,
2013-05-27 03:56:00,49.4,47.8,29.62,SSE,150,14.0,14.0,94,0.00,,---,0.00,VWS V14.00,2013-05-27 02:56:00,
2013-05-27 04:01:00,49.3,47.7,29.62,SSW,199,13.0,14.0,94,0.00,,---,0.00,VWS V14.00,2013-05-27 03:01:00,
2013-05-27 04:06:00,49.2,47.5,29.62,SSW,205,14.0,15.0,94,0.00,,---,0.00,VWS V14.00,2013-05-27 03:06:00,
2013-05-27 04:11:00,49.1,47.7,29.62,South,188,14.0,18.0,95,0.00,,---,0.00,VWS V14.00,2013-05-27 03:11:00,
2013-05-27 04:16:00,49.0,47.6,29.62,SSE,159,13.0,13.0,95,0.00,,---,0.00,VWS V14.00,2013-05-27 03:16:00,
2013-05-27 04:21:00,48.9,47.5,29.62,South,189,16.0,16.0,95,0.00,,---,0.00,VWS V14.00,2013-05-27 03:21:00,
2013-05-27 04:26:00,48.8,47.4,29.61,SSE,161,16.0,17.0,95,0.00,,---,0.00,VWS V14.00,2013-05-27 03:26:00,
2013-05-27 04:31:00,48.7,47.6,29.61,SSE,164,14.0,14.0,96,0.00,,---,0.00,VWS V14.00,2013-05-27 03:31:00,
2013-05-27 04:36:00,48.7,47.6,29.61,South,179,14.0,20.0,96,0.00,,---,0.00,VWS V14.00,2013-05-27 03:36:00,
2013-05-27 04:41:00,48.6,47.5,29.60,SSW,202,10.0,12.0,96,0.00,,---,0.00,VWS V14.00,2013-05-27 03:41:00,
2013-05-27 04:46:00,48.5,47.4,29.60,SSE,165,16.0,16.0,96,0.01,,---,0.01,VWS V14.00,2013-05-27 03:46:00,
2013-05-27 04:51:00,48.5,47.7,29.60,SSE,161,10.0,15.0,97,0.02,,---,0.02,VWS V14.00,2013-05-27 03:51:00,
2013-05-27 04:56:00,48.5,47.7,29.59,SSE,163,15.0,17.0,97,0.02,,---,0.02,VWS V14.00,2013-05-27 03:56:00,
2013-05-27 05:01:00,48.5,47.7,29.58,South,177,14.0,14.0,97,0.02,,---,0.02,VWS V14.00,2013-05-27 04:01:00,
2013-05-27 05:02:00,48.5,47.7,29.58,SSE,155,9.0,21.0,97,0.02,,---,0.02,VWS V14.00,2013-05-27 04:02:00,
2013-05-27 05:06:00,48.5,47.7,29.58,SSW,204,11.0,12.0,97,0.02,,---,0.02,VWS V14.00,2013-05-27 04:06:00,
2013-05-27 05:07:00,48.5,47.7,29.58,South,190,13.0,21.0,97,0.02,,---,0.02,VWS V14.00,2013-05-27 04:07:00,
2013-05-27 05:10:00,48.4,47.9,29.58,South,181,11.0,12.0,98,0.02,,---,0.02,VWS V14.00,2013-05-27 04:10:00,
2013-05-27 05:15:00,48.5,48.0,29.57,SSW,193,7.0,12.0,98,0.02,,---,0.02,VWS V14.00,2013-05-27 04:15:00,
2013-05-27 05:20:00,48.4,47.9,29.57,SW,225,10.0,11.0,98,0.02,,---,0.02,VWS V14.00,2013-05-27 04:20:00,
2013-05-27 05:25:00,48.4,47.9,29.57,SSW,198,11.0,13.0,98,0.02,,---,0.02,VWS V14.00,2013-05-27 04:25:00,
2013-05-27 05:30:00,48.4,47.9,29.56,SSE,153,7.0,22.0,98,0.03,,---,0.03,VWS V14.00,2013-05-27 04:30:00,
2013-05-27 05:35:00,48.4,47.9,29.56,South,180,6.0,16.0,98,0.03,,---,0.03,VWS V14.00,2013-05-27 04:35:00,
2013-05-27 05:40:00,48.4,47.9,29.56,SSW,198,15.0,16.0,98,0.03,,---,0.03,VWS V14.00,2013-05-27 04:40:00,
2013-05-27 05:45:00,48.5,48.0,29.56,South,190,13.0,15.0,98,0.02,,---,0.03,VWS V14.00,2013-05-27 04:45:00,
2013-05-27 05:50:00,48.5,48.0,29.55,SSE,160,17.0,17.0,98,0.02,,---,0.03,VWS V14.00,2013-05-27 04:50:00,
2013-05-27 05:55:00,48.5,48.0,29.55,South,188,6.0,14.0,98,0.02,,---,0.04,VWS V14.00,2013-05-27 04:55:00,
2013-05-27 06:00:00,48.5,48.2,29.55,SSE,161,16.0,20.0,99,0.02,,---,0.04,VWS V14.00,2013-05-27 05:00:00,
2013-05-27 06:05:00,48.5,48.2,29.55,South,173,20.0,20.0,99,0.03,,---,0.05,VWS V14.00,2013-05-27 05:05:00,
2013-05-27 06:10:00,48.6,48.3,29.54,South,178,10.0,18.0,99,0.02,,---,0.05,VWS V14.00,2013-05-27 05:10:00,
2013-05-27 06:15:00,48.6,48.3,29.54,SSW,212,11.0,18.0,99,0.02,,---,0.05,VWS V14.00,2013-05-27 05:15:00,
2013-05-27 06:20:00,48.7,48.4,29.53,SSE,166,11.0,14.0,99,0.02,,---,0.05,VWS V14.00,2013-05-27 05:20:00,
2013-05-27 06:25:00,48.7,48.4,29.53,SSE,150,11.0,17.0,99,0.02,,---,0.05,VWS V14.00,2013-05-27 05:25:00,
2013-05-27 06:30:00,48.7,48.4,29.53,South,178,10.0,19.0,99,0.02,,---,0.06,VWS V14.00,2013-05-27 05:30:00,
2013-05-27 06:35:00,48.7,48.4,29.53,SSW,196,9.0,11.0,99,0.02,,---,0.06,VWS V14.00,2013-05-27 05:35:00,
2013-05-27 06:40:00,48.8,48.5,29.52,SSW,192,7.0,12.0,99,0.03,,---,0.06,VWS V14.00,2013-05-27 05:40:00,
2013-05-27 06:45:00,48.8,48.5,29.52,SW,215,14.0,14.0,99,0.03,,---,0.06,VWS V14.00,2013-05-27 05:45:00,
2013-05-27 06:50:00,48.8,48.5,29.52,SSE,163,7.0,14.0,99,0.03,,---,0.06,VWS V14.00,2013-05-27 05:50:00,
2013-05-27 06:55:00,48.9,48.6,29.51,SSE,167,10.0,11.0,99,0.03,,---,0.06,VWS V14.00,2013-05-27 05:55:00,
2013-05-27 07:00:00,49.0,48.7,29.51,SSW,197,11.0,12.0,99,0.02,,---,0.06,VWS V14.00,2013-05-27 06:00:00,
2013-05-27 07:05:00,49.0,48.7,29.50,SSW,198,4.0,10.0,99,0.02,,---,0.06,VWS V14.00,2013-05-27 06:05:00,
2013-05-27 07:10:00,49.0,49.0,29.50,SSE,148,10.0,13.0,100,0.02,,---,0.07,VWS V14.00,2013-05-27 06:10:00,
2013-05-27 07:15:00,49.0,49.0,29.50,South,185,5.0,12.0,100,0.02,,---,0.07,VWS V14.00,2013-05-27 06:15:00,
2013-05-27 07:20:00,49.0,49.0,29.50,South,176,17.0,20.0,100,0.02,,---,0.07,VWS V14.00,2013-05-27 06:20:00,
2013-05-27 07:25:00,49.0,49.0,29.49,SSW,196,15.0,15.0,100,0.02,,---,0.07,VWS V14.00,2013-05-27 06:25:00,
2013-05-27 07:30:00,49.0,49.0,29.49,South,173,20.0,20.0,100,0.02,,---,0.08,VWS V14.00,2013-05-27 06:30:00,
2013-05-27 07:35:00,49.0,49.0,29.50,South,188,13.0,15.0,100,0.02,,---,0.08,VWS V14.00,2013-05-27 06:35:00,
2013-05-27 07:40:00,49.0,49.0,29.50,SSW,194,9.0,17.0,100,0.02,,---,0.08,VWS V14.00,2013-05-27 06:40:00,
2013-05-27 07:45:00,49.1,49.1,29.49,SSW,199,10.0,16.0,100,0.02,,---,0.08,VWS V14.00,2013-05-27 06:45:00,
2013-05-27 07:50:00,49.1,49.1,29.49,SSE,148,4.0,11.0,100,0.02,,---,0.08,VWS V14.00,2013-05-27 06:50:00,
2013-05-27 07:55:00,49.1,49.1,29.49,South,189,8.0,19.0,100,0.02,,---,0.08,VWS V14.00,2013-05-27 06:55:00,
2013-05-27 08:00:00,49.1,49.1,29.49,South,173,8.0,15.0,100,0.02,,---,0.09,VWS V14.00,2013-05-27 07:00:00,
2013-05-27 08:05:00,49.1,49.1,29.49,SSW,197,13.0,13.0,100,0.03,,---,0.09,VWS V14.00,2013-05-27 07:05:00,
2013-05-27 08:11:00,49.1,49.1,29.49,SSW,194,5.0,16.0,100,0.02,,---,0.09,VWS V14.00,2013-05-27 07:11:00,
2013-05-27 08:16:00,49.1,49.1,29.48,South,186,6.0,13.0,100,0.03,,---,0.10,VWS V14.00,2013-05-27 07:16:00,
2013-05-27 08:21:00,49.2,49.2,29.48,South,181,16.0,16.0,100,0.04,,---,0.11,VWS V14.00,2013-05-27 07:21:00,
2013-05-27 08:26:00,49.2,49.2,29.48,SSE,163,16.0,17.0,100,0.05,,---,0.12,VWS V14.00,2013-05-27 07:26:00,
2013-05-27 08:31:00,49.2,49.2,29.48,SW,219,5.0,11.0,100,0.05,,---,0.13,VWS V14.00,2013-05-27 07:31:00,
2013-05-27 08:36:00,49.2,49.2,29.48,South,171,10.0,13.0,100,0.05,,---,0.13,VWS V14.00,2013-05-27 07:36:00,
2013-05-27 08:41:00,49.2,49.2,29.48,SSE,155,12.0,12.0,100,0.06,,---,0.13,VWS V14.00,2013-05-27 07:41:00,
2013-05-27 08:46:00,49.2,49.2,29.48,SSE,150,3.0,10.0,100,0.06,,---,0.14,VWS V14.00,2013-05-27 07:46:00,
2013-05-27 08:51:00,49.3,49.3,29.48,South,184,10.0,10.0,100,0.07,,---,0.15,VWS V14.00,2013-05-27 07:51:00,
2013-05-27 08:56:00,49.3,49.3,29.47,South,174,15.0,15.0,100,0.08,,---,0.16,VWS V14.00,2013-05-27 07:56:00,
2013-05-27 09:01:00,49.2,49.2,29.47,South,189,6.0,12.0,100,0.08,,---,0.17,VWS V14.00,2013-05-27 08:01:00,
2013-05-27 09:06:00,49.3,49.3,29.47,South,187,5.0,7.0,100,0.08,,---,0.17,VWS V14.00,2013-05-27 08:06:00,
2013-05-27 09:11:00,49.3,49.3,29.47,South,186,12.0,16.0,100,0.09,,---,0.18,VWS V14.00,2013-05-27 08:11:00,
2013-05-27 09:16:00,49.3,49.3,29.47,South,189,5.0,7.0,100,0.09,,---,0.19,VWS V14.00,2013-05-27 08:16:00,
2013-05-27 09:21:00,49.4,49.4,29.46,South,187,9.0,13.0,100,0.09,,---,0.20,VWS V14.00,2013-05-27 08:21:00,
2013-05-27 09:26:00,49.4,49.4,29.46,SSW,206,1.0,3.0,100,0.09,,---,0.20,VWS V14.00,2013-05-27 08:26:00,
2013-05-27 09:31:00,49.4,49.4,29.46,SSW,209,2.0,12.0,100,0.09,,---,0.21,VWS V14.00,2013-05-27 08:31:00,
2013-05-27 09:36:00,49.5,49.5,29.46,South,187,5.0,10.0,100,0.09,,---,0.22,VWS V14.00,2013-05-27 08:36:00,
2013-05-27 09:41:00,49.2,49.2,29.47,NW,304,15.0,16.0,100,0.09,,---,0.23,VWS V14.00,2013-05-27 08:41:00,
2013-05-27 09:46:00,47.8,47.5,29.46,WNW,284,9.0,13.0,99,0.11,,---,0.25,VWS V14.00,2013-05-27 08:46:00,
2013-05-27 09:51:00,47.3,47.0,29.47,West,279,11.0,14.0,99,0.10,,---,0.25,VWS V14.00,2013-05-27 08:51:00,
2013-05-27 09:56:00,47.0,46.7,29.47,WNW,288,13.0,13.0,99,0.10,,---,0.26,VWS V14.00,2013-05-27 08:56:00,
2013-05-27 10:01:00,47.1,47.1,29.47,West,272,12.0,12.0,100,0.10,,---,0.27,VWS V14.00,2013-05-27 09:01:00,
2013-05-27 10:06:00,47.1,47.1,29.47,NW,309,10.0,11.0,100,0.09,,---,0.27,VWS V14.00,2013-05-27 09:06:00,
2013-05-27 10:11:00,47.1,47.1,29.47,WNW,288,8.0,13.0,100,0.09,,---,0.27,VWS V14.00,2013-05-27 09:11:00,
2013-05-27 10:16:00,47.1,47.1,29.46,WNW,294,5.0,5.0,100,0.08,,---,0.27,VWS V14.00,2013-05-27 09:16:00,
2013-05-27 10:21:00,47.2,47.2,29.46,West,276,5.0,6.0,100,0.07,,---,0.27,VWS V14.00,2013-05-27 09:21:00,
2013-05-27 10:26:00,47.3,47.3,29.46,WNW,284,7.0,9.0,100,0.06,,---,0.27,VWS V14.00,2013-05-27 09:26:00,
2013-05-27 10:31:00,47.2,47.2,29.47,West,279,4.0,6.0,100,0.06,,---,0.27,VWS V14.00,2013-05-27 09:31:00,
2013-05-27 10:36:00,47.2,47.2,29.46,West,275,5.0,10.0,100,0.05,,---,0.27,VWS V14.00,2013-05-27 09:36:00,
2013-05-27 10:41:00,47.2,47.2,29.46,WNW,294,7.0,10.0,100,0.04,,---,0.27,VWS V14.00,2013-05-27 09:41:00,
2013-05-27 10:46:00,47.2,47.2,29.46,WNW,290,9.0,12.0,100,0.02,,---,0.27,VWS V14.00,2013-05-27 09:46:00,
2013-05-27 10:51:00,47.2,47.2,29.46,WNW,284,8.0,11.0,100,0.02,,---,0.27,VWS V14.00,2013-05-27 09:51:00,
2013-05-27 10:56:00,47.5,47.5,29.46,WNW,284,4.0,5.0,100,0.01,,---,0.27,VWS V14.00,2013-05-27 09:56:00,
2013-05-27 11:01:00,47.6,47.6,29.46,West,268,4.0,6.0,100,0.00,,---,0.27,VWS V14.00,2013-05-27 10:01:00,
2013-05-27 11:06:00,47.6,47.6,29.46,West,259,3.0,4.0,100,0.00,,---,0.27,VWS V14.00,2013-05-27 10:06:00,
2013-05-27 11:11:00,47.6,47.3,29.46,West,262,4.0,5.0,99,0.00,,---,0.27,VWS V14.00,2013-05-27 10:11:00,
2013-05-27 11:16:00,47.7,47.4,29.46,WSW,240,1.0,5.0,99,0.00,,---,0.27,VWS V14.00,2013-05-27 10:16:00,
2013-05-27 11:21:00,47.7,47.4,29.46,WSW,252,6.0,6.0,99,0.00,,---,0.27,VWS V14.00,2013-05-27 10:21:00,
2013-05-27 11:26:00,47.7,47.4,29.46,WSW,254,6.0,7.0,99,0.00,,---,0.27,VWS V14.00,2013-05-27 10:26:00,
2013-05-27 11:31:00,47.7,47.4,29.46,West,279,5.0,5.0,99,0.00,,---,0.27,VWS V14.00,2013-05-27 10:31:00,
2013-05-27 11:36:00,47.8,47.5,29.46,West,265,9.0,10.0,99,0.00,,---,0.27,VWS V14.00,2013-05-27 10:36:00,
2013-05-27 11:41:00,47.9,47.6,29.46,West,281,5.0,9.0,99,0.00,,---,0.27,VWS V14.00,2013-05-27 10:41:00,
2013-05-27 11:46:00,48.0,47.5,29.45,WNW,291,6.0,9.0,98,0.00,,---,0.27,VWS V14.00,2013-05-27 10:46:00,
2013-05-27 11:51:00,48.2,47.7,29.45,WNW,291,4.0,6.0,98,0.00,,---,0.27,VWS V14.00,2013-05-27 10:51:00,
2013-05-27 11:56:00,48.3,47.8,29.45,West,265,6.0,9.0,98,0.00,,---,0.27,VWS V14.00,2013-05-27 10:56:00,
2013-05-27 12:01:00,48.5,47.7,29.45,WNW,283,5.0,6.0,97,0.00,,---,0.27,VWS V14.00,2013-05-27 11:01:00,
2013-05-27 12:06:00,48.7,47.9,29.45,West,265,4.0,6.0,97,0.00,,---,0.27,VWS V14.00,2013-05-27 11:06:00,
2013-05-27 12:11:00,49.0,48.2,29.45,SW,228,2.0,7.0,97,0.00,,---,0.27,VWS V14.00,2013-05-27 11:11:00,
2013-05-27 12:16:00,49.2,48.4,29.45,WSW,248,5.0,7.0,97,0.00,,---,0.27,VWS V14.00,2013-05-27 11:16:00,
2013-05-27 12:21:00,49.3,48.2,29.45,WSW,257,3.0,5.0,96,0.00,,---,0.27,VWS V14.00,2013-05-27 11:21:00,
2013-05-27 12:26:00,49.6,48.8,29.44,WSW,250,3.0,5.0,97,0.00,,---,0.27,VWS V14.00,2013-05-27 11:26:00,
2013-05-27 12:31:00,49.9,48.8,29.44,SW,231,4.0,6.0,96,0.00,,---,0.27,VWS V14.00,2013-05-27 11:31:00,
2013-05-27 12:36:00,50.2,49.1,29.44,SW,219,3.0,7.0,96,0.00,,---,0.27,VWS V14.00,2013-05-27 11:36:00,
2013-05-27 12:41:00,50.4,49.3,29.44,SW,227,5.0,5.0,96,0.00,,---,0.27,VWS V14.00,2013-05-27 11:41:00,
2013-05-27 12:46:00,50.6,49.2,29.44,SW,232,2.0,3.0,95,0.00,,---,0.27,VWS V14.00,2013-05-27 11:46:00,
2013-05-27 12:51:00,50.9,49.5,29.44,WSW,250,4.0,5.0,95,0.00,,---,0.27,VWS V14.00,2013-05-27 11:51:00,
2013-05-27 12:56:00,51.1,49.4,29.44,WSW,243,0.0,1.0,94,0.00,,---,0.27,VWS V14.00,2013-05-27 11:56:00,
2013-05-27 13:01:00,51.4,49.5,29.44,WSW,248,2.0,6.0,93,0.00,,---,0.27,VWS V14.00,2013-05-27 12:01:00,
2013-05-27 13:06:00,51.5,49.5,29.44,WSW,250,3.0,4.0,93,0.00,,---,0.27,VWS V14.00,2013-05-27 12:06:00,
2013-05-27 13:11:00,51.5,49.3,29.44,WSW,239,5.0,9.0,92,0.00,,---,0.27,VWS V14.00,2013-05-27 12:11:00,
2013-05-27 13:16:00,51.5,49.0,29.44,WSW,248,8.0,13.0,91,0.00,,---,0.27,VWS V14.00,2013-05-27 12:16:00,
2013-05-27 13:21:00,51.5,48.4,29.44,WSW,240,11.0,11.0,89,0.00,,---,0.27,VWS V14.00,2013-05-27 12:21:00,
2013-05-27 13:26:00,51.8,48.7,29.44,WSW,238,8.0,9.0,89,0.00,,---,0.27,VWS V14.00,2013-05-27 12:26:00,
2013-05-27 13:31:00,51.9,48.5,29.44,SW,232,4.0,12.0,88,0.00,,---,0.27,VWS V14.00,2013-05-27 12:31:00,
2013-05-27 13:36:00,52.0,48.3,29.44,SW,225,7.0,9.0,87,0.00,,---,0.27,VWS V14.00,2013-05-27 12:36:00,
2013-05-27 13:41:00,52.3,48.5,29.44,West,265,10.0,11.0,87,0.00,,---,0.27,VWS V14.00,2013-05-27 12:41:00,
2013-05-27 13:46:00,52.6,48.8,29.44,SW,218,4.0,5.0,87,0.00,,---,0.27,VWS V14.00,2013-05-27 12:46:00,
2013-05-27 13:51:00,52.3,48.5,29.44,SSW,211,6.0,7.0,87,0.00,,---,0.27,VWS V14.00,2013-05-27 12:51:00,
2013-05-27 13:56:00,52.0,48.6,29.44,SSW,205,5.0,6.0,88,0.00,,---,0.27,VWS V14.00,2013-05-27 12:56:00,
2013-05-27 14:01:00,51.7,48.6,29.44,SSW,194,5.0,5.0,89,0.00,,---,0.27,VWS V14.00,2013-05-27 13:01:00,
2013-05-27 14:06:00,51.7,48.6,29.44,South,173,5.0,7.0,89,0.00,,---,0.27,VWS V14.00,2013-05-27 13:06:00,
2013-05-27 14:11:00,51.7,48.9,29.44,SSW,194,3.0,4.0,90,0.00,,---,0.27,VWS V14.00,2013-05-27 13:11:00,
2013-05-27 14:16:00,52.1,49.0,29.44,SSW,199,6.0,7.0,89,0.00,,---,0.27,VWS V14.00,2013-05-27 13:16:00,
2013-05-27 14:21:00,52.3,48.9,29.44,South,171,8.0,9.0,88,0.00,,---,0.27,VWS V14.00,2013-05-27 13:21:00,
2013-05-27 14:26:00,52.3,48.5,29.44,SSW,201,10.0,10.0,87,0.00,,---,0.27,VWS V14.00,2013-05-27 13:26:00,
2013-05-27 14:31:00,52.0,48.6,29.44,SW,219,3.0,9.0,88,0.00,,---,0.27,VWS V14.00,2013-05-27 13:31:00,
2013-05-27 14:36:00,51.7,48.3,29.44,WNW,294,6.0,11.0,88,0.00,,---,0.27,VWS V14.00,2013-05-27 13:36:00,
2013-05-27 14:41:00,51.1,46.8,29.44,WNW,294,4.0,6.0,85,0.00,,---,0.27,VWS V14.00,2013-05-27 13:41:00,
2013-05-27 14:46:00,51.0,47.0,29.44,WNW,300,11.0,13.0,86,0.00,,---,0.27,VWS V14.00,2013-05-27 13:46:00,
2013-05-27 14:51:00,50.7,46.7,29.44,WNW,282,9.0,11.0,86,0.00,,---,0.27,VWS V14.00,2013-05-27 13:51:00,
2013-05-27 14:56:00,50.6,46.9,29.44,WNW,292,5.0,5.0,87,0.00,,---,0.27,VWS V14.00,2013-05-27 13:56:00,
2013-05-27 15:01:00,50.6,46.9,29.44,WNW,287,5.0,7.0,87,0.00,,---,0.27,VWS V14.00,2013-05-27 14:01:00,
2013-05-27 15:06:00,50.7,46.7,29.44,WSW,252,4.0,9.0,86,0.00,,---,0.27,VWS V14.00,2013-05-27 14:06:00,
2013-05-27 15:11:00,50.8,46.2,29.44,WNW,285,5.0,5.0,84,0.00,,---,0.27,VWS V14.00,2013-05-27 14:11:00,
2013-05-27 15:16:00,51.3,47.0,29.44,WNW,284,2.0,4.0,85,0.00,,---,0.27,VWS V14.00,2013-05-27 14:16:00,
2013-05-27 15:21:00,52.0,47.3,29.44,WSW,248,2.0,2.0,84,0.00,,---,0.27,VWS V14.00,2013-05-27 14:21:00,
2013-05-27 15:26:00,52.3,46.7,29.44,WSW,250,0.0,3.0,81,0.00,,---,0.27,VWS V14.00,2013-05-27 14:26:00,
2013-05-27 15:31:00,52.5,47.2,29.44,SW,236,0.0,2.0,82,0.00,,---,0.27,VWS V14.00,2013-05-27 14:31:00,
2013-05-27 15:36:00,52.2,46.5,29.44,SSW,197,4.0,6.0,81,0.00,,---,0.27,VWS V14.00,2013-05-27 14:36:00,
2013-05-27 15:41:00,51.5,46.5,29.44,SSE,162,9.0,10.0,83,0.00,,---,0.27,VWS V14.00,2013-05-27 14:41:00,
2013-05-27 15:46:00,51.3,47.6,29.44,SSE,167,6.0,6.0,87,0.00,,---,0.27,VWS V14.00,2013-05-27 14:46:00,
2013-05-27 15:51:00,51.1,48.0,29.44,SSE,153,6.0,7.0,89,0.00,,---,0.27,VWS V14.00,2013-05-27 14:51:00,
2013-05-27 15:56:00,51.1,48.6,29.44,South,173,7.0,9.0,91,0.00,,---,0.27,VWS V14.00,2013-05-27 14:56:00,
2013-05-27 16:01:00,51.2,48.7,29.44,SSW,193,5.0,7.0,91,0.00,,---,0.27,VWS V14.00,2013-05-27 15:01:00,
2013-05-27 16:06:00,51.7,49.2,29.43,South,185,5.0,5.0,91,0.00,,---,0.27,VWS V14.00,2013-05-27 15:06:00,
2013-05-27 16:11:00,51.8,47.8,29.43,SSE,161,10.0,10.0,86,0.00,,---,0.27,VWS V14.00,2013-05-27 15:11:00,
2013-05-27 16:16:00,52.3,48.2,29.43,SSW,202,4.0,6.0,86,0.00,,---,0.27,VWS V14.00,2013-05-27 15:16:00,
2013-05-27 16:21:00,52.5,48.1,29.43,SSE,165,8.0,10.0,85,0.00,,---,0.27,VWS V14.00,2013-05-27 15:21:00,
2013-05-27 16:26:00,52.5,47.8,29.43,SSE,167,8.0,8.0,84,0.00,,---,0.27,VWS V14.00,2013-05-27 15:26:00,
2013-05-27 16:31:00,52.3,47.6,29.43,South,186,5.0,5.0,84,0.00,,---,0.27,VWS V14.00,2013-05-27 15:31:00,
2013-05-27 16:36:00,51.7,47.0,29.44,SSW,195,5.0,10.0,84,0.00,,---,0.27,VWS V14.00,2013-05-27 15:36:00,
2013-05-27 16:41:00,50.8,46.5,29.44,WSW,244,8.0,10.0,85,0.00,,---,0.27,VWS V14.00,2013-05-27 15:41:00,
2013-05-27 16:46:00,50.3,46.6,29.44,SSW,213,11.0,11.0,87,0.00,,---,0.27,VWS V14.00,2013-05-27 15:46:00,
2013-05-27 16:52:00,49.9,46.5,29.44,SSE,166,6.0,10.0,88,0.00,,---,0.27,VWS V14.00,2013-05-27 15:52:00,
2013-05-27 16:57:00,50.1,46.7,29.44,South,180,3.0,9.0,88,0.00,,---,0.27,VWS V14.00,2013-05-27 15:57:00,
2013-05-27 17:02:00,50.3,46.9,29.44,South,176,12.0,14.0,88,0.00,,---,0.27,VWS V14.00,2013-05-27 16:02:00,
2013-05-27 17:07:00,50.5,47.1,29.44,SSE,168,12.0,12.0,88,0.00,,---,0.27,VWS V14.00,2013-05-27 16:07:00,
2013-05-27 17:12:00,50.3,46.0,29.44,South,181,5.0,13.0,85,0.00,,---,0.27,VWS V14.00,2013-05-27 16:12:00,
2013-05-27 17:17:00,50.2,46.2,29.44,SE,137,12.0,14.0,86,0.00,,---,0.27,VWS V14.00,2013-05-27 16:17:00,
2013-05-27 17:22:00,49.9,45.9,29.44,SE,143,5.0,8.0,86,0.00,,---,0.27,VWS V14.00,2013-05-27 16:22:00,
2013-05-27 17:27:00,49.9,46.2,29.44,SE,130,7.0,12.0,87,0.00,,---,0.27,VWS V14.00,2013-05-27 16:27:00,
2013-05-27 17:32:00,50.2,47.1,29.44,SSE,163,9.0,10.0,89,0.00,,---,0.27,VWS V14.00,2013-05-27 16:32:00,
2013-05-27 17:37:00,50.2,47.4,29.44,South,172,6.0,10.0,90,0.00,,---,0.27,VWS V14.00,2013-05-27 16:37:00,
2013-05-27 17:42:00,50.5,47.4,29.44,SSE,164,14.0,14.0,89,0.00,,---,0.27,VWS V14.00,2013-05-27 16:42:00,
2013-05-27 17:47:00,50.4,47.0,29.44,SSE,163,10.0,12.0,88,0.00,,---,0.27,VWS V14.00,2013-05-27 16:47:00,
2013-05-27 17:52:00,50.0,46.6,29.44,SE,146,10.0,15.0,88,0.00,,---,0.27,VWS V14.00,2013-05-27 16:52:00,
2013-05-27 17:57:00,49.7,46.9,29.44,SSE,156,14.0,14.0,90,0.00,,---,0.27,VWS V14.00,2013-05-27 16:57:00,
2013-05-27 18:02:00,49.3,46.5,29.44,South,171,10.0,14.0,90,0.00,,---,0.27,VWS V14.00,2013-05-27 17:02:00,
2013-05-27 18:07:00,49.0,46.2,29.44,South,188,6.0,12.0,90,0.00,,---,0.27,VWS V14.00,2013-05-27 17:07:00,
2013-05-27 18:12:00,48.9,46.4,29.44,SW,216,5.0,6.0,91,0.00,,---,0.27,VWS V14.00,2013-05-27 17:12:00,
2013-05-27 18:17:00,48.8,46.6,29.44,SW,219,9.0,9.0,92,0.00,,---,0.27,VWS V14.00,2013-05-27 17:17:00,
2013-05-27 18:22:00,48.8,46.6,29.44,South,188,4.0,6.0,92,0.00,,---,0.27,VWS V14.00,2013-05-27 17:22:00,
2013-05-27 18:27:00,48.7,46.8,29.45,SW,236,7.0,8.0,93,0.02,,---,0.28,VWS V14.00,2013-05-27 17:27:00,
2013-05-27 18:32:00,48.4,46.5,29.46,SSW,201,11.0,11.0,93,0.02,,---,0.29,VWS V14.00,2013-05-27 17:32:00,
2013-05-27 18:37:00,47.8,45.6,29.45,WSW,250,7.0,7.0,92,0.04,,---,0.31,VWS V14.00,2013-05-27 17:37:00,
2013-05-27 18:42:00,47.2,45.0,29.45,West,267,4.0,4.0,92,0.05,,---,0.31,VWS V14.00,2013-05-27 17:42:00,
2013-05-27 18:47:00,47.2,45.0,29.45,West,259,0.0,1.0,92,0.06,,---,0.32,VWS V14.00,2013-05-27 17:47:00,
2013-05-27 18:52:00,47.3,44.8,29.44,WSW,258,0.0,3.0,91,0.06,,---,0.32,VWS V14.00,2013-05-27 17:52:00,
2013-05-27 18:57:00,47.5,45.3,29.44,SW,230,4.0,4.0,92,0.06,,---,0.32,VWS V14.00,2013-05-27 17:57:00,
2013-05-27 19:02:00,47.7,45.5,29.44,SW,230,0.0,2.0,92,0.06,,---,0.32,VWS V14.00,2013-05-27 18:02:00,
2013-05-27 19:07:00,48.1,45.9,29.44,SSW,197,2.0,4.0,92,0.06,,---,0.32,VWS V14.00,2013-05-27 18:07:00,
2013-05-27 19:12:00,48.5,46.3,29.44,SSW,195,2.0,4.0,92,0.06,,---,0.32,VWS V14.00,2013-05-27 18:12:00,
2013-05-27 19:17:00,48.7,46.5,29.44,South,178,6.0,7.0,92,0.06,,---,0.32,VWS V14.00,2013-05-27 18:17:00,
2013-05-27 19:22:00,48.7,46.5,29.44,South,182,7.0,7.0,92,0.06,,---,0.32,VWS V14.00,2013-05-27 18:22:00,
2013-05-27 19:27:00,48.6,46.1,29.44,South,174,6.0,9.0,91,0.04,,---,0.32,VWS V14.00,2013-05-27 18:27:00,
2013-05-27 19:36:00,48.2,46.0,29.44,South,180,6.0,10.0,92,0.03,,---,0.32,VWS V14.00,2013-05-27 18:36:00,
2013-05-27 19:42:00,48.0,45.8,29.45,SSE,166,6.0,7.0,92,0.01,,---,0.32,VWS V14.00,2013-05-27 18:42:00,
2013-05-27 19:47:00,47.8,45.6,29.45,SSW,200,8.0,9.0,92,0.00,,---,0.32,VWS V14.00,2013-05-27 18:47:00,
2013-05-27 19:52:00,47.7,45.5,29.45,South,177,6.0,6.0,92,0.00,,---,0.32,VWS V14.00,2013-05-27 18:52:00,
2013-05-27 19:57:00,47.4,45.2,29.45,South,184,5.0,7.0,92,0.00,,---,0.32,VWS V14.00,2013-05-27 18:57:00,
2013-05-27 20:02:00,47.3,45.4,29.45,South,190,5.0,6.0,93,0.00,,---,0.32,VWS V14.00,2013-05-27 19:02:00,
2013-05-27 20:07:00,47.3,45.4,29.45,SSE,167,7.0,8.0,93,0.00,,---,0.32,VWS V14.00,2013-05-27 19:07:00,
2013-05-27 20:12:00,47.4,45.5,29.45,SSE,161,7.0,11.0,93,0.00,,---,0.32,VWS V14.00,2013-05-27 19:12:00,
2013-05-27 20:17:00,47.5,45.6,29.45,South,174,5.0,7.0,93,0.00,,---,0.32,VWS V14.00,2013-05-27 19:17:00,
2013-05-27 20:22:00,47.6,45.7,29.45,South,185,2.0,2.0,93,0.00,,---,0.32,VWS V14.00,2013-05-27 19:22:00,
2013-05-27 20:27:00,47.6,45.7,29.45,South,170,6.0,9.0,93,0.00,,---,0.32,VWS V14.00,2013-05-27 19:27:00,
2013-05-27 20:32:00,47.6,45.4,29.45,South,174,5.0,9.0,92,0.00,,---,0.32,VWS V14.00,2013-05-27 19:32:00,
2013-05-27 20:37:00,47.5,45.3,29.45,South,175,5.0,11.0,92,0.00,,---,0.32,VWS V14.00,2013-05-27 19:37:00,
2013-05-27 20:42:00,47.4,45.5,29.45,South,171,11.0,12.0,93,0.00,,---,0.32,VWS V14.00,2013-05-27 19:42:00,
2013-05-27 20:47:00,47.4,45.5,29.45,SSE,163,6.0,10.0,93,0.00,,---,0.32,VWS V14.00,2013-05-27 19:47:00,
2013-05-27 20:52:00,47.3,45.4,29.46,SSW,196,9.0,9.0,93,0.00,,---,0.32,VWS V14.00,2013-05-27 19:52:00,
2013-05-27 20:57:00,47.3,45.4,29.46,SSE,166,5.0,9.0,93,0.00,,---,0.32,VWS V14.00,2013-05-27 19:57:00,
2013-05-27 21:02:00,47.2,45.3,29.46,South,169,5.0,5.0,93,0.00,,---,0.32,VWS V14.00,2013-05-27 20:02:00,
2013-05-27 21:07:00,47.2,45.3,29.46,SSE,166,4.0,6.0,93,0.00,,---,0.32,VWS V14.00,2013-05-27 20:07:00,
2013-05-27 21:12:00,47.2,45.6,29.46,SSE,163,7.0,7.0,94,0.00,,---,0.32,VWS V14.00,2013-05-27 20:12:00,
2013-05-27 21:17:00,47.3,45.7,29.46,South,184,5.0,10.0,94,0.00,,---,0.32,VWS V14.00,2013-05-27 20:17:00,
2013-05-27 21:22:00,47.3,45.7,29.46,South,187,4.0,5.0,94,0.00,,---,0.32,VWS V14.00,2013-05-27 20:22:00,
2013-05-27 21:27:00,47.4,46.0,29.46,South,190,10.0,11.0,95,0.00,,---,0.32,VWS V14.00,2013-05-27 20:27:00,
2013-05-27 21:32:00,47.4,46.0,29.46,SSW,192,5.0,6.0,95,0.00,,---,0.32,VWS V14.00,2013-05-27 20:32:00,
2013-05-27 21:37:00,47.4,46.0,29.47,South,177,3.0,6.0,95,0.00,,---,0.32,VWS V14.00,2013-05-27 20:37:00,
2013-05-27 21:42:00,47.4,46.0,29.47,South,188,5.0,9.0,95,0.00,,---,0.32,VWS V14.00,2013-05-27 20:42:00,
2013-05-27 21:47:00,47.4,46.0,29.47,SSW,203,6.0,6.0,95,0.00,,---,0.32,VWS V14.00,2013-05-27 20:47:00,
2013-05-27 21:52:00,47.4,46.0,29.47,SSW,204,3.0,6.0,95,0.00,,---,0.32,VWS V14.00,2013-05-27 20:52:00,
2013-05-27 21:57:00,47.4,46.3,29.47,SSW,213,6.0,6.0,96,0.00,,---,0.32,VWS V14.00,2013-05-27 20:57:00,
2013-05-27 22:02:00,47.5,46.4,29.47,SW,232,1.0,4.0,96,0.00,,---,0.32,VWS V14.00,2013-05-27 21:02:00,
2013-05-27 22:07:00,47.5,46.4,29.47,SW,227,2.0,3.0,96,0.00,,---,0.32,VWS V14.00,2013-05-27 21:07:00,
2013-05-27 22:12:00,47.5,46.4,29.48,WSW,244,0.0,3.0,96,0.00,,---,0.32,VWS V14.00,2013-05-27 21:12:00,
2013-05-27 22:17:00,47.6,46.5,29.48,WSW,243,5.0,5.0,96,0.00,,---,0.32,VWS V14.00,2013-05-27 21:17:00,
2013-05-27 22:22:00,47.7,46.6,29.48,WSW,252,6.0,6.0,96,0.00,,---,0.32,VWS V14.00,2013-05-27 21:22:00,
2013-05-27 22:27:00,47.9,46.8,29.48,West,265,4.0,5.0,96,0.00,,---,0.32,VWS V14.00,2013-05-27 21:27:00,
2013-05-27 22:32:00,48.1,46.7,29.48,West,281,5.0,6.0,95,0.00,,---,0.32,VWS V14.00,2013-05-27 21:32:00,
2013-05-27 22:37:00,48.3,46.7,29.48,West,280,2.0,3.0,94,0.00,,---,0.32,VWS V14.00,2013-05-27 21:37:00,
2013-05-27 22:42:00,48.3,46.4,29.48,West,264,4.0,4.0,93,0.00,,---,0.32,VWS V14.00,2013-05-27 21:42:00,
2013-05-27 22:47:00,48.3,46.4,29.48,WSW,254,5.0,7.0,93,0.00,,---,0.32,VWS V14.00,2013-05-27 21:47:00,
2013-05-27 22:52:00,48.3,46.1,29.48,West,261,4.0,6.0,92,0.00,,---,0.32,VWS V14.00,2013-05-27 21:52:00,
2013-05-27 22:57:00,48.2,46.0,29.48,West,266,4.0,5.0,92,0.00,,---,0.32,VWS V14.00,2013-05-27 21:57:00,
2013-05-27 23:02:00,48.1,45.9,29.48,West,268,6.0,9.0,92,0.00,,---,0.32,VWS V14.00,2013-05-27 22:02:00,
2013-05-27 23:07:00,48.0,45.5,29.49,West,270,5.0,7.0,91,0.00,,---,0.32,VWS V14.00,2013-05-27 22:07:00,
2013-05-27 23:12:00,48.0,45.5,29.49,West,275,3.0,6.0,91,0.00,,---,0.32,VWS V14.00,2013-05-27 22:12:00,
2013-05-27 23:17:00,48.0,45.2,29.49,WNW,290,7.0,9.0,90,0.00,,---,0.32,VWS V14.00,2013-05-27 22:17:00,
2013-05-27 23:22:00,48.0,44.9,29.49,West,266,5.0,7.0,89,0.00,,---,0.32,VWS V14.00,2013-05-27 22:22:00,
2013-05-27 23:27:00,48.0,44.6,29.49,West,271,9.0,11.0,88,0.00,,---,0.32,VWS V14.00,2013-05-27 22:27:00,
2013-05-27 23:32:00,47.9,44.5,29.49,West,271,11.0,11.0,88,0.00,,---,0.32,VWS V14.00,2013-05-27 22:32:00,
2013-05-27 23:38:00,48.0,44.6,29.49,West,267,5.0,9.0,88,0.00,,---,0.32,VWS V14.00,2013-05-27 22:38:00,
2013-05-27 23:43:00,47.9,44.5,29.49,WSW,254,5.0,6.0,88,0.00,,---,0.32,VWS V14.00,2013-05-27 22:43:00,
2013-05-27 23:48:00,47.7,44.6,29.50,WSW,253,6.0,6.0,89,0.00,,---,0.32,VWS V14.00,2013-05-27 22:48:00,
2013-05-27 23:53:00,47.5,44.4,29.50,WSW,251,5.0,5.0,89,0.00,,---,0.32,VWS V14.00,2013-05-27 22:53:00,
2013-05-27 23:59:00,47.3,44.5,29.50,WSW,254,5.0,6.0,90,0.00,,---,0.00,VWS V14.00,2013-05-27 22:59:00,